This is the latest recevied weather packets stored in our database for station/object K4LEN. If no packets are shown the sender has not sent any weather packets the latest 10 day(s).
| Time | Temp. | Humidity | Pressure | Rain* | Wind** | Luminosity | Snow |
|---|---|---|---|---|---|---|---|
| 1788137413 | 78° F | 90% | 766.3 mmHg | 0 in | - | 7 W/m² | - |
| 1788136810 | 79° F | 88% | 766.3 mmHg | 0 in | - | 7 W/m² | - |
| 1788136207 | 81° F | 84% | 766 mmHg | 0 in | - | 7 W/m² | - |
| 1788135607 | 82° F | 81% | 766.1 mmHg | 0 in | - | 1 W/m² | - |
| 1788135005 | 84° F | 79% | 766.2 mmHg | 0 in | - | 6 W/m² | - |
| 1788134406 | 85° F | 74% | 766.3 mmHg | 0 in | - | 11 W/m² | - |
| 1788133801 | 85° F | 73% | 766.2 mmHg | 0 in | - | 21 W/m² | - |
| 1788133197 | 86° F | 69% | 766.3 mmHg | 0 in | - | 31 W/m² | - |
| 1788132594 | 87° F | 67% | 766.3 mmHg | 0 in | - | 45 W/m² | - |
| 1788131992 | 87° F | 66% | 766.2 mmHg | 0 in | - | 70 W/m² | - |
| 1788131392 | 88° F | 66% | 766.2 mmHg | 0 in | - | 101 W/m² | - |
| 1788130792 | 88° F | 66% | 766.3 mmHg | 0 in | - | 116 W/m² | - |
| 1788130188 | 89° F | 63% | 766.1 mmHg | 0 in | - | 165 W/m² | - |
| 1788129583 | 89° F | 63% | 766.3 mmHg | 0 in | - | 182 W/m² | - |
| 1788128978 | 89° F | 65% | 766 mmHg | 0 in | - | 190 W/m² | - |
| 1788128376 | 89° F | 63% | 766.2 mmHg | 0 in | - | 270 W/m² | - |
| 1788127773 | 90° F | 60% | 766 mmHg | 0 in | - | 275 W/m² | - |
| 1788127171 | 89° F | 61% | 766.1 mmHg | 0 in | - | 307 W/m² | - |
| 1788126566 | 90° F | 61% | 766.2 mmHg | 0 in | - | 304 W/m² | - |
| 1788125962 | 91° F | 62% | 766.1 mmHg | 0 in | - | 398 W/m² | - |
| 1788125359 | 90° F | 62% | 766.1 mmHg | 0 in | - | 438 W/m² | - |
| 1788124759 | 90° F | 62% | 766.3 mmHg | 0 in | - | 456 W/m² | - |
| 1788124156 | 90° F | 62% | 766.3 mmHg | 0 in | - | 494 W/m² | - |
| 1788123552 | 90° F | 62% | 766.3 mmHg | 0 in | - | 445 W/m² | - |
| 1788122948 | 90° F | 62% | 766.3 mmHg | 0 in | - | 544 W/m² | - |
* Rain latest hour (hover to see other rain measurements)
** Current wind speed in m/s (hover to see current wind gust speed)